Вернуться в каталог

STARLINK-37486

АктивенСвязьVLEO
NORAD 69264·PAYLOAD·🇺🇸 United States

Запущен May 29, 2026 с Cape Canaveral Space Force Station

Loading…

Ближайшие Пролёты (ближайшие 24 часа)

TLE

СвежийSource: CelesTrak SupGP

Эпоха: Sep 15, 2026, 03:03 UTC

1 69264C 26117AC  26258.12756944 -.00091478  00000+0 -27019-2 0  2584
2 69264  53.1568 178.9923 0001318  84.0586 152.9439 15.34446079    17

Отслеживайте STARLINK-37486 в реальном времени с AllMySat

Download on the App Store